Temp
-17 -17 -17 -16 -16 -17 -19 -18 -20 -17 -19 -16 -16 -16 -16 -17 -16 -16 -15 -15 -15 -14 -13 -14 -14 -13 -13 -12 -13 -13 -13 -14 -14 -14 -14 -14 -13 -13 -13 -13 -13 -13 -13 -13
-17 -18 -18 -18 -17 -18 -18 -18 -20 -20 -20 -17 -18 -17 -17 -17 -17 -17 -16 -16 -16 -16 -15 -15 -14 -14 -13 -13 -13 -14 -13 -14 -14 -13 -14 -13 -13 -13 -13 -13 -13 -13 -13 -13
-18 -19 -20 -18 -17 -19 -19 -19 -21 -21 -20 -18 -19 -18 -18 -19 -18 -17 -17 -17 -16 -16 -16 -15 -15 -14 -14 -14 -14 -13 -13 -13 -13 -13 -13 -13 -14 -14 -13 -13 -13 -13 -13 -13
-20 -20 -20 -18 -19 -20 -21 -21 -23 -22 -21 -20 -20 -20 -19 -19 -19 -19 -18 -17 -18 -17 -16 -16 -15 -14 -14 -14 -14 -14 -14 -12 -12 -13 -13 -14 -14 -14 -14 -14 -14 -14 -13 -13
-23 -22 -21 -19 -19 -22 -23 -22 -23 -23 -23 -22 -22 -21 -20 -19 -20 -19 -19 -18 -18 -18 -17 -16 -16 -16 -15 -15 -14 -14 -14 -14 -14 -14 -14 -15 -15 -14 -14 -14 -14 -13 -13 -13
-23 -24 -23 -19 -21 -22 -24 -24 -23 -24 -24 -23 -23 -23 -20 -22 -21 -20 -20 -19 -19 -19 -17 -16 -16 -17 -16 -16 -15 -15 -15 -15 -14 -14 -15 -15 -14 -14 -14 -15 -15 -13 -13 -13
-24 -25 -23 -21 -23 -24 -25 -24 -24 -24 -24 -23 -23 -23 -22 -22 -22 -22 -21 -20 -19 -19 -18 -18 -17 -17 -16 -16 -15 -15 -14 -15 -15 -15 -15 -15 -15 -14 -14 -15 -14 -14 -14 -14
-25 -25 -24 -23 -24 -25 -24 -24 -24 -24 -24 -24 -24 -24 -23 -23 -23 -22 -22 -21 -20 -19 -19 -19 -18 -17 -17 -16 -15 -16 -16 -16 -16 -15 -15 -15 -15 -15 -15 -15 -14 -14 -14 -14
-26 -25 -24 -24 -24 -24 -24 -24 -24 -24 -24 -24 -24 -24 -24 -23 -24 -23 -22 -22 -21 -20 -19 -19 -18 -18 -17 -17 -15 -15 -16 -16 -16 -15 -15 -15 -15 -15 -15 -15 -14 -15 -15 -15
-25 -24 -25 -25 -25 -25 -25 -25 -24 -24 -24 -24 -24 -24 -24 -24 -23 -23 -23 -22 -22 -21 -20 -19 -19 -18 -16 -16 -15 -15 -16 -16 -15 -15 -15 -15 -15 -15 -15 -15 -14 -14 -15 -14
-25 -25 -25 -25 -25 -24 -24 -24 -25 -24 -24 -24 -24 -24 -24 -23 -24 -23 -23 -22 -22 -22 -20 -20 -20 -18 -18 -16 -15 -15 -16 -15 -15 -15 -15 -14 -14 -15 -15 -14 -14 -15 -14 -15
-26 -25 -25 -25 -24 -24 -24 -24 -24 -25 -24 -24 -24 -24 -24 -23 -24 -23 -23 -22 -22 -21 -21 -20 -20 -18 -17 -17 -16 -15 -15 -15 -15 -15 -15 -14 -15 -15 -15 -15 -15 -15 -14 -15
-25 -26 -26 -25 -25 -24 -24 -24 -24 -25 -24 -24 -24 -24 -24 -24 -24 -24 -23 -23 -22 -21 -21 -21 -19 -18 -17 -17 -17 -17 -17 -16 -16 -16 -16 -15 -15 -16 -15 -15 -14 -15 -16 -16
-25 -25 -24 -24 -25 -25 -25 -25 -25 -24 -24 -25 -24 -24 -24 -24 -24 -24 -23 -23 -22 -21 -21 -20 -18 -18 -17 -17 -16 -17 -16 -17 -17 -16 -16 -16 -16 -16 -16 -16 -16 -16 -17 -17
-26 -25 -25 -25 -25 -25 -25 -25 -25 -25 -25 -25 -25 -25 -24 -24 -24 -24 -23 -22 -21 -21 -20 -19 -18 -18 -18 -17 -17 -17 -17 -17 -17 -17 -17 -16 -16 -15 -15 -15 -17 -17 -17 -17
-26 -26 -25 -25 -25 -25 -25 -25 -25 -25 -25 -25 -25 -25 -25 -24 -24 -23 -23 -22 -21 -20 -20 -18 -18 -19 -19 -18 -17 -17 -17 -17 -17 -17 -16 -16 -16 -16 -16 -16 -17 -17 -17 -18
-25 -25 -25 -25 -25 -25 -25 -25 -25 -24 -25 -25 -25 -24 -24 -23 -23 -22 -22 -21 -21 -20 -19 -18 -17 -19 -18 -17 -17 -17 -17 -17 -17 -17 -17 -17 -16 -16 -17 -17 -17 -18 -18 -18
-26 -26 -26 -25 -25 -24 -24 -24 -24 -24 -24 -24 -23 -23 -23 -23 -23 -22 -21 -21 -20 -20 -19 -18 -19 -18 -18 -17 -17 -18 -18 -18 -17 -17 -17 -17 -17 -18 -18 -18 -18 -19 -19 -19
-26 -26 -26 -26 -25 -24 -24 -24 -24 -23 -22 -23 -22 -23 -23 -22 -22 -21 -20 -20 -20 -20 -19 -19 -19 -18 -18 -18 -18 -18 -18 -18 -18 -18 -18 -18 -19 -19 -19 -19 -19 -19 -20 -20
-25 -25 -25 -25 -24 -24 -24 -23 -23 -23 -22 -22 -22 -22 -22 -22 -21 -21 -20 -20 -20 -20 -20 -19 -19 -19 -19 -19 -19 -19 -19 -19 -19 -19 -19 -20 -20 -20 -20 -20 -20 -20 -20 -21
-25 -25 -24 -24 -23 -23 -23 -23 -23 -22 -22 -22 -22 -22 -21 -21 -21 -20 -20 -20 -20 -20 -20 -20 -20 -20 -19 -19 -19 -19 -20 -20 -20 -20 -20 -21 -21 -21 -21 -21 -21 -21 -21 -21
-25 -24 -24 -24 -24 -23 -23 -22 -22 -22 -22 -22 -21 -21 -21 -21 -21 -21 -20 -20 -20 -20 -20 -20 -20 -20 -20 -20 -20 -20 -20 -20 -20 -20 -20 -20 -20 -21 -21 -21 -21 -21 -21 -21
-24 -24 -24 -24 -23 -23 -23 -23 -23 -23 -24 -23 -23 -23 -23 -23 -22 -22 -22 -22 -21 -21 -21 -21 -21 -21 -21 -21 -21 -21 -21 -21 -21 -21 -21 -21 -22 -22 -22 -22 -22 -22 -22 -23
-25 -25 -25 -25 -25 -25 -24 -24 -24 -24 -24 -24 -24 -24 -23 -23 -23 -23 -23 -22 -22 -22 -22 -22 -22 -22 -22 -22 -22 -22 -22 -22 -22 -22 -23 -23 -23 -23 -23 -23 -23 -23 -23 -24
-26 -25 -26 -26 -26 -25 -25 -25 -25 -25 -24 -24 -24 -24 -23 -23 -23 -23 -23 -23 -23 -23 -23 -23 -23 -23 -23 -23 -23 -23 -23 -23 -23 -23 -23 -23 -23 -23 -24 -24 -24 -25 -25 -25
-26 -26 -26 -26 -26 -26 -26 -25 -25 -24 -24 -24 -24 -24 -24 -24 -24 -24 -24 -23 -23 -23 -23 -23 -23 -23 -23 -23 -23 -23 -23 -24 -24 -24 -25 -25 -25 -26 -26 -26 -27 -27 -27 -27
-27 -27 -27 -27 -27 -27 -26 -26 -26 -25 -25 -25 -25 -25 -25 -24 -24 -24 -24 -24 -24 -24 -25 -25 -25 -25 -25 -25 -25 -25 -26 -26 -26 -26 -26 -26 -26 -26 -26 -26 -26 -27 -27 -27
Height
5630 5629 5627 5628 5630 5631 5628 5625 5615 5629 5619 5637 5642 5639 5637 5633 5629 5630 5633 5638 5642 5647 5650 5654 5655 5662 5664 5669 5674 5676 5678 5683 5686 5686 5683 5684 5686 5688 5688 5689 5687 5684 5683 5681
5621 5618 5614 5612 5620 5613 5613 5615 5609 5609 5607 5623 5618 5622 5621 5617 5614 5614 5617 5621 5627 5632 5633 5637 5642 5647 5648 5653 5653 5656 5663 5664 5668 5666 5669 5673 5676 5677 5676 5676 5674 5672 5672 5670
5606 5606 5599 5597 5607 5602 5600 5599 5593 5590 5595 5605 5599 5602 5605 5596 5600 5601 5600 5605 5610 5615 5618 5622 5626 5630 5637 5637 5642 5644 5648 5652 5653 5655 5658 5660 5662 5663 5663 5663 5661 5660 5658 5657
5589 5590 5581 5594 5596 5589 5586 5585 5578 5574 5577 5579 5583 5583 5584 5583 5584 5585 5586 5586 5592 5593 5601 5604 5611 5614 5616 5623 5626 5630 5637 5640 5642 5642 5645 5647 5650 5651 5651 5650 5648 5646 5645 5643
5572 5572 5571 5583 5588 5577 5567 5565 5566 5567 5565 5563 5562 5562 5568 5571 5568 5570 5572 5573 5572 5575 5583 5590 5596 5595 5595 5602 5607 5612 5620 5625 5629 5629 5630 5633 5634 5636 5636 5636 5634 5633 5630 5628
5562 5557 5556 5574 5577 5562 5555 5550 5567 5556 5552 5553 5550 5545 5557 5554 5552 5555 5557 5558 5557 5559 5566 5572 5577 5578 5579 5587 5591 5600 5603 5608 5611 5611 5614 5617 5619 5620 5621 5619 5619 5619 5617 5614
5551 5545 5543 5556 5561 5548 5541 5552 5549 5547 5542 5539 5536 5535 5538 5537 5537 5539 5540 5541 5542 5545 5550 5553 5557 5560 5565 5571 5577 5585 5585 5587 5593 5598 5600 5602 5604 5605 5605 5606 5607 5606 5604 5602
5541 5537 5531 5545 5544 5537 5538 5535 5536 5534 5530 5527 5525 5523 5524 5523 5521 5523 5525 5526 5528 5529 5536 5538 5539 5542 5548 5556 5564 5564 5569 5575 5580 5584 5587 5590 5592 5592 5592 5593 5593 5593 5592 5590
5528 5527 5530 5530 5529 5527 5523 5519 5524 5521 5520 5515 5515 5514 5513 5513 5511 5508 5508 5511 5512 5513 5519 5524 5525 5528 5534 5542 5549 5555 5558 5561 5565 5569 5573 5575 5577 5579 5580 5581 5581 5580 5579 5577
5517 5522 5519 5516 5512 5513 5512 5507 5510 5509 5507 5504 5503 5502 5501 5499 5497 5496 5495 5497 5499 5499 5504 5508 5510 5513 5518 5528 5535 5539 5542 5547 5551 5555 5558 5561 5564 5565 5567 5568 5567 5567 5566 5563
5505 5508 5503 5501 5501 5501 5500 5497 5495 5496 5495 5492 5489 5491 5487 5487 5485 5481 5482 5484 5484 5486 5490 5494 5494 5495 5503 5511 5520 5525 5528 5532 5535 5539 5543 5545 5547 5551 5553 5552 5553 5552 5550 5548
5491 5495 5484 5485 5494 5488 5483 5484 5481 5478 5480 5479 5475 5475 5474 5474 5471 5467 5468 5470 5473 5474 5477 5481 5483 5485 5490 5496 5502 5507 5512 5516 5520 5524 5527 5530 5533 5534 5535 5537 5538 5536 5530 5528
5482 5482 5476 5478 5478 5477 5468 5471 5469 5464 5463 5464 5465 5461 5460 5459 5458 5454 5455 5458 5461 5462 5465 5469 5474 5479 5479 5483 5486 5490 5493 5500 5504 5508 5511 5514 5516 5519 5521 5522 5515 5508 5511 5513
5473 5468 5468 5467 5461 5462 5456 5455 5452 5451 5451 5450 5450 5449 5446 5445 5444 5442 5443 5447 5449 5452 5457 5459 5464 5466 5469 5465 5472 5474 5479 5487 5491 5495 5497 5500 5502 5504 5505 5503 5502 5502 5498 5501
5466 5460 5456 5456 5450 5447 5444 5440 5437 5437 5437 5435 5434 5430 5430 5431 5430 5431 5433 5436 5439 5444 5446 5449 5451 5454 5452 5457 5464 5467 5472 5476 5480 5482 5483 5485 5488 5490 5490 5488 5487 5487 5486 5486
5460 5454 5449 5444 5439 5434 5430 5428 5423 5423 5421 5418 5417 5416 5416 5417 5420 5421 5424 5425 5430 5434 5437 5439 5442 5443 5446 5451 5453 5456 5460 5464 5468 5470 5471 5473 5474 5475 5475 5474 5473 5474 5475 5476
5450 5446 5440 5434 5427 5423 5418 5415 5410 5408 5407 5406 5404 5404 5406 5409 5411 5413 5415 5417 5422 5425 5428 5430 5434 5439 5437 5439 5442 5445 5449 5452 5455 5457 5459 5460 5462 5463 5463 5463 5464 5464 5466 5468
5438 5430 5423 5416 5412 5411 5410 5406 5403 5401 5399 5398 5398 5399 5401 5403 5405 5407 5408 5411 5415 5418 5421 5425 5428 5431 5432 5433 5437 5439 5439 5442 5444 5446 5448 5449 5450 5451 5451 5453 5454 5456 5457 5457
5428 5420 5414 5408 5405 5403 5401 5399 5397 5394 5392 5394 5394 5394 5395 5397 5399 5401 5403 5408 5412 5416 5418 5419 5421 5423 5424 5425 5426 5429 5432 5433 5435 5438 5439 5440 5442 5443 5443 5445 5447 5447 5447 5446
5419 5411 5406 5403 5401 5399 5396 5394 5392 5390 5387 5386 5388 5388 5390 5392 5393 5396 5400 5404 5407 5409 5410 5412 5414 5417 5418 5421 5423 5425 5426 5427 5428 5430 5431 5433 5434 5435 5435 5436 5437 5437 5436 5435
5415 5408 5403 5400 5397 5396 5394 5393 5390 5385 5381 5381 5383 5384 5386 5388 5391 5395 5399 5402 5403 5406 5410 5411 5413 5414 5416 5417 5418 5419 5420 5421 5423 5424 5424 5425 5425 5425 5424 5424 5424 5423 5422 5422
5412 5405 5400 5398 5397 5396 5395 5392 5388 5384 5381 5381 5381 5383 5386 5389 5391 5394 5397 5400 5403 5406 5407 5408 5409 5410 5411 5412 5412 5414 5415 5416 5415 5416 5415 5413 5413 5413 5413 5412 5410 5410 5408 5407
5412 5405 5401 5399 5398 5397 5396 5393 5391 5387 5386 5386 5386 5387 5388 5390 5392 5394 5396 5398 5400 5402 5403 5404 5405 5405 5406 5406 5406 5406 5406 5406 5406 5405 5404 5402 5401 5400 5398 5397 5395 5393 5392 5389
5412 5407 5403 5400 5398 5398 5397 5396 5394 5393 5392 5391 5392 5392 5393 5393 5394 5395 5396 5397 5398 5398 5399 5399 5398 5398 5398 5397 5397 5396 5395 5394 5393 5391 5389 5387 5385 5384 5382 5380 5377 5375 5372 5369
5412 5408 5406 5404 5402 5401 5400 5398 5397 5396 5395 5394 5393 5394 5394 5394 5395 5394 5394 5394 5395 5395 5394 5393 5392 5392 5391 5390 5388 5386 5384 5383 5381 5377 5375 5373 5370 5367 5364 5361 5358 5355 5352 5349
5411 5408 5407 5405 5404 5403 5401 5399 5397 5397 5396 5396 5395 5394 5394 5394 5393 5393 5392 5392 5391 5391 5390 5388 5386 5383 5381 5379 5377 5375 5372 5368 5365 5362 5359 5354 5351 5347 5343 5340 5337 5333 5330 5326
5409 5408 5406 5405 5403 5402 5401 5399 5398 5397 5396 5395 5394 5394 5393 5391 5390 5390 5388 5387 5385 5383 5380 5377 5374 5372 5369 5366 5363 5359 5355 5352 5348 5344 5339 5335 5331 5326 5321 5316 5312 5307 5303 5299
Wind_Speed
54 57 59 59 58 56 56 58 63 57 63 52 48 53 54 58 63 64 63 60 56 47 57 59 62 55 56 55 58 58 59 54 52 53 60 59 54 50 51 48 50 50 44 44
53 55 58 61 56 59 59 59 60 60 63 52 55 52 54 60 61 64 62 64 61 47 43 55 63 59 59 59 66 68 62 60 58 60 61 58 53 51 51 50 49 47 44 42
53 52 57 61 56 58 59 59 60 61 58 53 56 54 54 63 62 62 64 63 63 64 60 52 61 67 61 58 58 60 68 60 61 60 59 56 55 54 51 47 48 48 50 49
54 53 61 56 53 56 57 56 56 60 62 60 57 55 57 62 64 63 63 66 67 66 65 64 57 68 61 60 61 62 64 60 58 61 60 54 55 54 50 47 51 53 55 54
53 55 58 53 47 48 47 53 50 48 48 58 55 58 58 59 62 65 65 63 68 69 66 66 61 69 72 66 64 65 66 72 65 60 55 53 55 55 51 49 52 53 53 54
52 53 57 47 42 48 47 49 40 41 49 46 43 49 54 55 59 60 60 68 75 65 57 67 72 67 78 67 75 75 78 74 66 57 50 54 58 57 56 51 52 50 50 50
47 51 58 51 41 43 45 32 34 36 37 40 46 46 42 47 55 54 56 62 65 72 65 68 75 76 67 74 70 62 57 51 50 50 54 58 60 58 53 51 53 51 49 48
43 48 55 42 38 43 44 46 37 35 39 43 43 41 43 43 48 51 49 46 55 67 66 53 58 62 82 61 57 57 50 50 50 52 56 60 62 60 55 53 54 54 53 48
47 47 45 44 44 45 48 49 37 40 39 43 39 37 38 45 43 44 50 44 44 51 52 54 54 54 74 66 66 72 65 58 58 61 62 65 65 61 59 58 57 54 53 52
52 46 46 47 52 50 50 49 38 39 41 43 43 37 40 37 44 51 46 45 47 50 52 55 52 49 55 63 71 65 70 72 70 69 66 65 64 64 60 58 57 56 53 50
50 48 51 52 49 50 48 50 51 47 47 47 49 45 42 43 41 42 44 42 46 44 52 50 48 52 46 54 53 65 61 66 66 63 65 66 64 60 57 58 57 51 53 62
46 41 48 45 40 46 49 49 48 48 50 50 52 49 44 44 45 41 39 41 45 38 45 43 48 44 48 51 59 62 67 66 66 66 64 65 62 60 55 54 50 60 73 54
40 40 42 39 40 40 43 44 47 49 47 43 42 49 47 44 48 43 34 37 38 33 40 42 44 50 38 45 42 41 45 46 52 58 60 63 64 59 48 60 74 54 46 53
37 41 42 41 42 40 44 41 46 47 49 47 50 48 52 44 46 37 32 32 29 32 31 36 43 36 36 30 36 29 41 42 41 48 58 61 53 54 55 43 51 54 52 53
33 37 39 38 39 38 40 48 52 50 52 50 45 45 47 44 40 28 29 30 27 28 23 29 29 26 20 27 38 29 30 32 35 40 44 47 49 52 54 56 52 51 53 53
30 34 39 40 41 42 42 36 39 35 34 33 33 35 37 36 27 26 30 31 28 30 29 27 35 35 29 26 31 32 31 34 35 37 40 41 44 49 47 52 55 56 53 45
38 41 43 41 45 42 38 36 33 32 32 31 27 27 25 25 24 26 27 28 27 27 24 30 41 45 33 29 29 27 28 30 33 36 43 45 46 46 41 39 40 37 34 32
47 49 48 44 33 26 23 27 29 30 29 19 18 20 23 20 15 16 21 27 19 21 26 37 37 34 31 30 33 35 30 31 30 34 36 36 36 34 34 34 30 31 31 31
41 43 42 34 25 22 23 26 28 20 22 25 16 16 18 19 22 18 16 17 17 17 22 29 31 28 28 29 29 30 31 30 28 27 25 25 26 26 27 30 32 32 32 31
40 33 23 19 20 21 22 23 19 25 24 22 22 21 21 20 15 15 19 19 18 18 18 19 20 21 21 21 22 21 20 19 20 21 22 24 26 29 29 31 33 34 34 35
25 25 22 17 15 14 16 15 22 19 18 8 11 15 17 14 16 18 17 15 15 17 21 21 22 23 23 21 18 17 17 17 18 20 22 24 27 29 31 34 36 37 38 41
24 24 19 15 10 8 13 15 14 9 3 2 5 11 13 13 15 16 15 14 15 16 15 16 17 16 17 17 17 20 23 24 26 29 30 32 35 38 40 41 43 44 48 50
19 18 11 11 9 5 8 10 16 14 14 10 8 7 7 6 6 8 9 10 11 11 11 14 15 17 18 20 23 24 27 30 32 34 35 36 39 41 43 46 47 49 51 53
9 13 14 14 15 13 12 11 13 12 10 9 8 6 5 2 0 2 3 6 9 11 14 16 17 20 22 24 27 29 31 34 36 38 38 40 42 45 47 50 52 54 56 57
5 8 11 13 13 11 10 10 8 8 7 7 7 6 5 5 5 6 7 9 12 13 15 18 21 23 25 28 30 33 35 38 40 43 45 48 50 51 53 55 56 58 59 61
4 4 7 10 11 10 9 9 10 9 9 9 9 9 8 9 10 12 13 15 18 21 23 24 26 29 32 35 38 41 43 44 46 48 49 51 53 54 56 58 59 61 63 65
9 6 8 9 11 13 13 12 12 11 11 11 12 12 13 13 14 15 17 20 22 24 26 28 30 33 35 38 40 43 45 48 50 52 54 57 60 62 65 67 69 72 74 77
Wind_Direction
270 270 271 271 270 266 263 268 266 270 266 271 267 260 259 258 261 259 257 258 258 250 241 242 249 244 238 236 236 233 239 246 246 252 255 260 265 273 275 278 279 284 287 285
271 272 272 271 273 271 271 269 266 267 268 272 264 261 261 260 259 258 258 256 252 247 251 237 243 246 241 238 234 234 242 237 240 245 251 257 264 277 277 279 282 284 282 285
275 270 269 271 274 273 274 274 278 278 275 265 264 260 255 259 259 258 261 258 255 249 251 249 238 235 237 237 238 245 235 237 243 247 251 259 264 272 271 274 279 279 282 285
273 269 265 277 277 274 274 274 275 274 274 271 266 261 256 258 257 258 258 259 260 253 245 248 249 239 229 230 232 240 241 242 251 248 250 258 265 269 270 276 280 280 281 284
267 267 271 273 278 281 274 270 272 282 286 277 278 269 259 258 258 257 258 257 262 261 250 245 247 252 250 240 237 238 241 243 247 245 251 264 264 264 266 274 278 282 285 286
272 273 275 283 278 274 278 281 287 277 279 288 286 284 272 263 261 259 260 255 256 261 257 252 250 251 243 240 245 251 253 253 255 253 256 257 258 261 266 271 277 280 281 283
274 271 278 285 284 278 279 292 290 282 279 282 280 282 283 270 260 260 263 257 257 256 260 263 255 253 241 240 237 239 240 247 251 254 255 259 261 265 269 274 274 275 278 282
273 270 274 282 275 270 279 283 280 281 276 276 277 280 280 276 266 261 261 259 255 254 251 262 262 254 247 245 241 251 248 252 256 252 258 259 260 265 271 273 270 274 276 278
272 279 282 278 283 282 280 274 271 274 276 281 285 285 284 280 271 266 262 257 257 247 247 256 259 253 251 245 243 246 250 251 252 255 258 260 262 265 268 272 270 274 275 277
276 281 283 276 273 277 279 278 275 283 272 275 277 279 287 291 287 273 267 262 259 254 251 257 260 258 251 251 241 249 254 251 253 255 254 256 261 264 267 268 268 273 275 279
276 281 277 269 272 278 275 271 272 276 273 277 276 276 284 285 293 277 270 265 260 259 251 256 264 267 264 259 248 248 244 247 252 252 255 257 258 261 261 261 266 272 271 273
283 284 283 274 275 277 275 275 274 274 275 278 278 274 278 284 294 273 265 268 265 258 256 266 261 265 264 254 255 249 247 249 249 251 253 253 254 256 260 259 265 267 261 260
289 292 294 285 286 282 277 273 271 275 276 274 274 273 278 279 291 273 259 266 262 258 256 264 260 250 236 239 238 241 246 241 243 244 249 248 252 259 256 263 262 250 257 263
293 290 289 289 291 275 277 276 272 271 274 274 278 271 274 279 283 263 260 265 257 251 259 265 256 252 235 232 223 226 226 240 247 250 251 254 260 259 265 261 259 259 265 270
291 293 297 297 295 290 283 277 274 274 274 274 277 277 270 269 270 257 259 263 242 245 250 245 251 263 256 235 231 235 238 239 248 258 256 255 261 261 259 251 253 261 264 268
300 299 300 301 299 290 289 281 284 280 280 278 276 275 264 263 255 251 259 248 242 247 249 253 247 272 272 250 243 252 257 255 258 251 262 264 269 262 262 257 254 258 266 266
299 299 297 293 297 289 288 288 300 301 294 296 285 263 245 244 246 257 252 238 246 246 254 252 256 261 271 262 255 258 258 258 262 265 261 261 259 259 254 258 257 256 255 255
306 305 303 301 294 290 288 293 298 295 295 286 265 255 256 252 231 248 232 233 241 247 246 241 244 255 260 256 258 257 268 266 265 261 255 254 253 253 259 259 254 256 260 260
313 310 306 299 299 307 311 302 295 289 296 282 273 260 251 252 258 238 225 226 252 253 241 240 247 249 255 261 263 264 255 253 251 250 249 250 255 258 259 261 262 263 263 268
315 311 311 314 317 310 308 301 294 299 295 280 270 261 257 262 250 221 222 231 239 251 258 258 258 259 259 253 248 243 243 244 246 250 256 260 263 262 263 265 267 272 276 278
315 320 324 318 316 311 305 310 319 310 297 263 251 244 244 241 212 207 217 227 239 245 245 248 251 250 244 240 241 257 266 270 272 271 270 273 276 280 281 283 281 281 280 280
319 327 332 328 326 354 340 2 355 346 355 242 228 215 208 204 201 205 214 226 237 239 238 241 243 245 253 261 267 267 266 266 273 278 279 279 279 279 279 278 278 278 278 279
332 336 324 315 344 2 2 12 25 47 57 65 83 111 126 153 179 195 202 213 228 243 259 263 265 269 266 265 267 268 270 272 273 273 273 273 274 276 278 279 280 280 280 280
360 35 47 62 57 45 36 29 48 47 53 51 43 38 39 34 352 239 253 276 278 276 274 277 280 279 279 279 279 278 279 280 281 281 282 282 281 280 279 279 279 279 279 280
4 43 42 50 57 55 60 52 55 54 48 45 37 25 14 343 321 312 299 293 290 289 291 291 290 288 287 286 285 283 282 280 279 280 281 280 279 279 279 279 279 278 278 278
342 7 21 29 23 24 30 32 44 41 29 20 10 2 352 340 332 322 315 306 300 295 290 288 286 285 283 282 281 281 281 281 281 281 282 282 282 282 282 281 280 280 280 279
291 315 344 346 341 341 345 349 351 351 351 345 336 330 324 318 311 306 302 298 297 296 297 298 297 295 293 292 291 290 290 289 287 286 286 284 284 283 282 282 281 281 280 280